Roros Lufthavn, Norway

5:29 PM CET on December 10, 2019 (GMT +0100)
Roros

Weather History for ENRO - October, 2019

Change the Weather History Date:

Tuesday, October 22, 2019

  Actual Average Record
Temperature  
Mean Temperature 42 °F -  
Max Temperature 51 °F 35 °F 51 °F (2019)
Min Temperature 32 °F 27 °F 6 °F (2003)
Degree Days  
Heating Degree Days 24    
Moisture  
Dew Point 31 °F    
Average Humidity 75    
Maximum Humidity 100    
Minimum Humidity 54    
Precipitation  
Precipitation 0.00 in - - ()
Sea Level Pressure  
Sea Level Pressure 29.55 in    
Wind  
Wind Speed 8 mph ()    
Max Wind Speed 18 mph    
Max Gust Speed 24 mph    
Visibility 6.1 miles    
Events Rain , Snow    
Averages and records for this station are not official NWS values.
T = Trace of Precipitation, MM = Missing Value Source: Averaged Metar Reports

Daily Weather History Graph

Daily Weather History Graph

Search for Another Location

Airport or City:

Astronomy

Oct. 22, 2019 Rise Set
Actual Time 8:18 AM CEST 5:38 PM CEST
Civil Twilight 7:31 AM CEST 6:25 PM CEST
Nautical Twilight 6:39 AM CEST 7:17 PM CEST
Astronomical Twilight 5:46 AM CEST 8:09 PM CEST
Moon 11:52 PM CEST (10/22) 5:07 PM CEST (10/22)
Length of Visible Light 10h 53m
Length of Day
9h 19m
Last Quarter, 40% of the Moon is Illuminated
Oct 22
Last Quarter
Oct 28
New
Nov 4
First Quarter
Nov 12
Full
Nov 19
Last Quarter

Hourly Weather History & Observations

Time (CEST) Temp. Windchill Dew Point Humidity Pressure Visibility Wind Dir Wind Speed Gust Speed Precip Events Conditions
12:20 AM 33.8 °F 29.6 °F 30.2 °F 87% 29.71 in 6.2 mi South 4.6 mph - N/A Rain Light Rain
12:50 AM 33.8 °F 30.8 °F 30.2 °F 87% 29.71 in 6.2 mi SSE 3.5 mph - N/A Rain Light Rain Showers
1:20 AM 33.8 °F 29.6 °F 32.0 °F 93% 29.68 in 4.3 mi ESE 4.6 mph - N/A Snow Light Snow Showers
1:50 AM 33.8 °F 27.7 °F 33.8 °F 100% 29.65 in 6.2 mi SSW 6.9 mph - N/A Snow Light Snow
2:20 AM 35.6 °F 29.9 °F 32.0 °F 87% 29.62 in 6.2 mi South 6.9 mph - N/A Rain , Snow Light Rain
2:50 AM 35.6 °F 28.0 °F 32.0 °F 87% 29.62 in 6.2 mi SE 10.4 mph - N/A Rain Light Rain
3:20 AM 35.6 °F 28.6 °F 30.2 °F 81% 29.59 in 6.2 mi ESE 9.2 mph - N/A   Mostly Cloudy
3:50 AM 35.6 °F 27.5 °F 30.2 °F 81% 29.59 in 6.2 mi SE 11.5 mph - N/A   Overcast
4:20 AM 35.6 °F 27.1 °F 30.2 °F 81% 29.56 in 6.2 mi SSE 12.7 mph - N/A   Mostly Cloudy
4:50 AM 35.6 °F 28.0 °F 30.2 °F 81% 29.53 in 6.2 mi SSW 10.4 mph - N/A   Overcast
5:20 AM 37.4 °F 30.3 °F 30.2 °F 75% 29.53 in 6.2 mi South 10.4 mph - N/A   Overcast
5:50 AM 37.4 °F 29.8 °F 30.2 °F 75% 29.50 in 6.2 mi SSE 11.5 mph - N/A   Overcast
6:20 AM 37.4 °F 29.3 °F 30.2 °F 75% 29.50 in 6.2 mi SSE 12.7 mph - N/A   Mostly Cloudy
7:20 AM 37.4 °F 30.8 °F 30.2 °F 75% 29.47 in 6.2 mi South 9.2 mph - N/A   Partly Cloudy
8:20 AM 35.6 °F 28.0 °F 30.2 °F 81% 29.44 in 6.2 mi SE 10.4 mph - N/A   Mostly Cloudy
9:20 AM 37.4 °F 30.8 °F 30.2 °F 75% 29.44 in 6.2 mi SE 9.2 mph - N/A   Scattered Clouds
9:50 AM 37.4 °F 28.9 °F 32.0 °F 81% 29.42 in 6.2 mi East 13.8 mph - N/A   Mostly Cloudy
10:20 AM 39.2 °F 32.0 °F 32.0 °F 75% 29.44 in 6.2 mi ESE 11.5 mph - N/A   Partly Cloudy
10:50 AM 42.8 °F 36.6 °F 32.0 °F 66% 29.42 in 6.2 mi South 11.5 mph - N/A   Mostly Cloudy
11:20 AM 44.6 °F 40.2 °F 32.0 °F 61% 29.42 in 6.2 mi Variable 8.1 mph 21.9 mph N/A   Scattered Clouds
11:50 AM 44.6 °F 40.7 °F 32.0 °F 61% 29.42 in 6.2 mi Variable 6.9 mph 18.4 mph N/A   Partly Cloudy
12:20 PM 44.6 °F 38.8 °F 32.0 °F 61% 29.42 in 6.2 mi SSW 11.5 mph 24.2 mph N/A   Mostly Cloudy
1:50 PM 50.0 °F - 33.8 °F 54% 29.42 in - SW 18.4 mph - N/A   Clear
2:20 PM 50.0 °F - 35.6 °F 58% 29.42 in - SW 17.3 mph - N/A   Clear
2:50 PM 50.0 °F - 35.6 °F 58% 29.44 in - WSW 13.8 mph - N/A   Clear
3:20 PM 51.8 °F - 37.4 °F 58% 29.44 in 6.2 mi WSW 11.5 mph - N/A   Partly Cloudy
3:50 PM 44.6 °F 38.4 °F 39.2 °F 81% 29.47 in 6.2 mi NNW 12.7 mph - N/A   Scattered Clouds
4:20 PM 42.8 °F 37.5 °F 37.4 °F 81% 29.50 in 6.2 mi NW 9.2 mph - N/A   Scattered Clouds
5:50 PM 42.8 °F 37.5 °F 33.8 °F 70% 29.56 in - NNW 9.2 mph - N/A   Clear
6:20 PM 42.8 °F 39.3 °F 30.2 °F 61% 29.56 in - NNW 5.8 mph - N/A   Clear
6:50 PM 39.2 °F 35.0 °F 30.2 °F 70% 29.59 in - West 5.8 mph - N/A   Clear
7:50 PM 37.4 °F 29.3 °F 28.4 °F 70% 29.59 in 6.2 mi West 12.7 mph - N/A   Scattered Clouds
8:20 PM 37.4 °F 32.1 °F 26.6 °F 65% 29.62 in 6.2 mi NNW 6.9 mph - N/A   Partly Cloudy
9:20 PM 33.8 °F 27.7 °F 28.4 °F 81% 29.65 in 6.2 mi NW 6.9 mph - N/A   Mostly Cloudy
9:50 PM 33.8 °F 29.6 °F 28.4 °F 81% 29.65 in 6.2 mi East 4.6 mph - N/A   Partly Cloudy
10:20 PM 32.0 °F 25.6 °F 26.6 °F 80% 29.65 in 6.2 mi West 6.9 mph - N/A   Partly Cloudy
10:50 PM 33.8 °F 27.0 °F 28.4 °F 81% 29.68 in 6.2 mi WNW 8.1 mph - N/A   Overcast
11:20 PM 35.6 °F 31.7 °F 28.4 °F 75% 29.68 in 6.2 mi West 4.6 mph - N/A   Overcast
11:50 PM 33.8 °F - 28.4 °F 81% 29.71 in 6.2 mi Variable 2.3 mph - N/A   Overcast